Regional Weather Roundup
Issued by NWS Kansas City/Pleasant Hill, MO

Home | Current Version | Previous Version | Graphics & Text | Print | Product List | Glossary Off
Versions: 1 2 3 4 5 6 7 8 9 10 11 12 13 14 15 16 17 18 19 20 21 22 23 24 25 26 27 28 29 30 31 32 33 34 35 36 37 38 39 40 41 42 43 44 45 46 47 48 49 50

000
ASUS43 KEAX 272104
RWREAX

WEATHER ROUNDUP FOR EASTERN KANSAS AND NORTHWEST MISSOURI
NATIONAL WEATHER SERVICE KANSAS CITY/PLEASANT HILL MO
400 PM CDT SUN JUL 27 2014

KSZ040-057-103>105-MOZ028-029-037-043-272200-
...KANSAS CITY METROPOLITAN AREA...

CITY           SKY/WX    TMP DP  RH WIND       PRES   REMARKS
K.C. INTL      MOSUNNY   86  57  37 NW15G21   30.06R
K.C. DOWNTOWN  LGT RAIN  89  53  29 NW16G24   30.04R
LEES SUMMIT    PTSUNNY   87  56  34 N15G22    30.05S
OLATHE - IXD   PTSUNNY   87  54  32 NW14      30.07S
OLATHE - OJC   PTSUNNY   87  53  31 NW15G22   30.06S
LAWRENCE       PTSUNNY   91  53  27 NW17G24   30.06S

$$

MOZ001>008-011>017-020>025-030>033-038>040-044>046-053-054-272200-
...NORTHERN AND CENTRAL MISSOURI...

CITY           SKY/WX    TMP DP  RH WIND       PRES   REMARKS
ST. JOSEPH     SUNNY     85  59  41 NW17G26   30.05S
MOSBY          PTCLDY    84  52  32 NW18G26   30.03S
WHITEMAN AFB   MOSUNNY   87  42  20 NW15      30.02R
CLINTON        PTSUNNY   88  61  40 NW12      30.03S
SEDALIA        MOSUNNY   86  58  38 NW13G22   30.02R
WARSAW         NOT AVBL
MARSHALL       SUNNY     88  61  40 NW13G24   30.01R
CHILLICOTHE      N/A     86  58  38 NW13G25   30.00F
KIRKSVILLE     SUNNY     83  56  39 NW20G30   29.98S

$$

MOZ041-047>049-056>058-063>065-088>090-097-272200-
...EASTERN AND SOUTHERN MISSOURI...

CITY           SKY/WX    TMP DP  RH WIND       PRES   REMARKS
ST. LOUIS INTL MOSUNNY   92  60  34 NW14G26   29.89S HX  91
SPIRIT OF STL  MOSUNNY   92  60  34 NW15G24   29.88S HX  91
COLUMBIA       SUNNY     88  56  33 W17       29.97S
JEFFERSON CITY MOSUNNY   88  56  33 NW16G23   29.95S
HANNIBAL       MOSUNNY   86  54  32 NW17G25   29.93S
ROLLA          MOSUNNY   91  56  30 NW14G23   29.95F
LEBANON        PTSUNNY   90  52  27 NW14G20   30.01S
OSAGE BEACH      N/A     90  63  40 W10       29.98S HX  90
SPRINGFIELD    PTSUNNY   89  59  36 NW12G20   30.03R
BRANSON        PTSUNNY   88  73  62 W5        30.04R HX  96
NEVADA         CLOUDY    86  66  51 NW10      30.06R
JOPLIN         LGT RAIN  83  67  58 N5        30.08R
WEST PLAINS    PTSUNNY   91  64  40 NW9       29.99S HX  92
MALDEN         MOSUNNY   93  77  59 W12       29.89  HX 107

$$

IAZ060-094-KSZ022-034>040-054-083-096-NEZ052-066-093-272200-
...KANSAS...SOUTHEAST NEBRASKA AND IOWA...

CITY           SKY/WX    TMP DP  RH WIND       PRES   REMARKS
TOPEKA         MOSUNNY   92  54  27 NW13G21   30.07R HX  90
MANHATTAN      MOSUNNY   92  49  22 N9        30.09F
EMPORIA        PTSUNNY   89  51  27 NW10G18   30.10F
CHANUTE        CLOUDY    90  65  43 NW13      30.08F HX  92
WICHITA        PTSUNNY   86  71  60 NE7       30.10S HX  91
OMAHA          MOSUNNY   83  55  38 NW23G31   30.08F
LINCOLN        MOSUNNY   87  57  35 NW21      30.12F
LAMONI         MOSUNNY   81  57  43 NW24G31   30.02S
DES MOINES     PTSUNNY   77  56  48 NW22G31   30.01R

$$



USA.gov is the U.S. government's official web portal to all federal, state and local government web resources and services.